This demonstration page uses our WeatherBlox Daily Observations layout. Learn more.

Left ArrowRight Arrow

44.8408, -93.29828

Hourly Observations for February 6, 2021

Temp ( °F °C ) Dew Point ( °F °C ) Humidity (%) Winds ( mph kmh ) Pressure ( in mb ) Visibility ( mi km ) Precip ( " mm )
12:53 am 00:53 Clear 2 -16.7 -7 -21.7 65 65 WNW 13 20 29.97 1015 10 16 0.00 0.00
1:53 am 01:53 Clear 1 -17.2 -8 -22.2 65 65 WNW 13 20 29.99 1016 10 16 0.00 0.00
2:53 am 02:53 Clear 0 -17.8 -9 -22.8 65 65 NW 13 20 30.00 1016 10 16 0.00 0.00
3:53 am 03:53 Clear -1 -18.3 -10 -23.3 65 65 WNW 13 20 30.03 1017 10 16 0.00 0.00
4:53 am 04:53 Clear -2 -18.9 -11 -23.9 65 65 NW 12 19 30.04 1017 10 16 0.00 0.00
5:53 am 05:53 Clear -3 -19.4 -12 -24.4 65 65 WNW 12 19 30.09 1019 10 16 0.00 0.00
6:53 am 06:53 Mostly Cloudy -3 -19.4 -13 -25 61 61 WNW 15 24 30.12 1020 10 16 0.00 0.00
7:53 am 07:53 Mostly Cloudy -3 -19.4 -13 -25 61 61 WNW 18 30 30.15 1021 10 16 0.00 0.00
8:53 am 08:53 Cloudy -2 -18.9 -13 -25 59 59 WNW 15 24 30.17 1022 10 16 0.00 0.00
9:53 am 09:53 Cloudy -2 -18.9 -13 -25 59 59 NW 22 35 30.18 1022 10 16 0.00 0.00
10:53 am 10:53 Cloudy -1 -18.3 -12 -24.4 59 59 WNW 20 31 30.21 1023 10 16 0.00 0.00
11:00 am 11:00 Cloudy -1 -18.3 -12 -24.4 59 59 NW 18 30 30.26 1025 10 16 0.00 0.00
11:53 am 11:53 Cloudy 0 -17.8 -10 -23.3 62 62 WNW 17 28 30.21 1023 10 16 0.00 0.00
12:22 pm 12:22 Mostly Cloudy 1 -17.2 -12 -24.4 54 54 WNW 17 28 30.24 1024 10 16 0.00 0.00
12:53 pm 12:53 Partly Cloudy 0 -17.8 -13 -25 54 54 NW 20 31 30.19 1022 10 16 0.00 0.00
1:35 pm 13:35 Mostly Cloudy 0 -17.8 -12 -24.4 57 57 W 18 30 30.23 1024 10 16 0.00 0.00
1:53 pm 13:53 Mostly Cloudy 0 -17.8 -13 -25 54 54 WNW 17 28 30.18 1022 10 16 0.00 0.00
2:00 pm 14:00 Partly Cloudy 0 -17.8 -12 -24.4 57 57 WNW 16 26 30.23 1024 10 16 0.00 0.00
2:53 pm 14:53 Mostly Cloudy -1 -18.3 -14 -25.6 53 53 WNW 17 28 30.18 1022 10 16 0.00 0.00
3:53 pm 15:53 Partly Cloudy -2 -18.9 -15 -26.1 53 53 WNW 16 26 30.18 1022 10 16 0.00 0.00
4:53 pm 16:53 Partly Cloudy -4 -20 -15 -26.1 58 58 NW 15 24 30.19 1023 10 16 0.00 0.00
5:53 pm 17:53 Mostly Clear -6 -21.1 -16 -26.7 61 61 WNW 14 22 30.22 1023 10 16 0.00 0.00
6:53 pm 18:53 Mostly Clear -8 -22.2 -18 -27.8 61 61 WNW 15 24 30.24 1024 10 16 0.00 0.00
7:53 pm 19:53 Clear -9 -22.8 -19 -28.3 61 61 WNW 14 22 30.24 1024 10 16 0.00 0.00
8:53 pm 20:53 Clear -10 -23.3 -20 -28.9 60 60 NW 14 22 30.25 1024 10 16 0.00 0.00
9:53 pm 21:53 Clear -10 -23.3 -20 -28.9 60 60 NW 12 19 30.27 1025 10 16 0.00 0.00
10:53 pm 22:53 Clear -11 -23.9 -21 -29.4 61 61 NW 13 20 30.27 1025 10 16 0.00 0.00
11:53 pm 23:53 Clear -12 -24.4 -21 -29.4 63 63 NW 12 19 30.28 1025 10 16 0.00 0.00

Powered by AerisWeather